Location: Balmoral
(33.0667°S, 151.5833°E)
Time: 16:50:42
(UTC+00:00)

Cosmos 1354 Rocket - Pass Details

Date: 18 September 2020
Orbit: 765 x 782 km, 74.0° (Epoch: 24 October)

Event Time Altitude Azimuth Distance (km) Brightness Sun altitude
Exits shadow 18:21:48 16° 335° (NNW) 1,907 5.7 -18.7°
Maximum altitude 18:25:58 71° 252° (WSW) 825 3.9 -17.8°
Drops below altitude 10° 18:31:17 10° 168° (SSE) 2,348 6.8 -16.7°
Sets 18:33:43 0° 165° (SSE) 3,285 7.6 -16.2°
